Location: Ash Swamp
(41.5170°N, 74.6157°W)
Time: 17:23:29
(UTC+00:00)

Cosmos 1758 Rocket - Pass Details

Date: 14 July 2020
Orbit: 601 x 637 km, 82.5° (Epoch: 04 August)

Event Time Altitude Azimuth Distance (km) Brightness Sun altitude
Rises 01:00:58 0° 191° (SSW) 2,922 6.8 -5.4°
Reaches altitude 10° 01:03:13 10° 194° (SSW) 2,017 6.0 -5.8°
Maximum altitude 01:07:41 72° 278° (W) 670 3.9 -6.4°
Drops below altitude 10° 01:12:10 10° 4° (N) 2,022 6.7 -7.1°
Sets 01:14:25 0° 6° (N) 2,930 7.5 -7.5°
